Weather History for Miramar MCAS, CA

Change the Weather History Date:

Thursday, September 5, 2013

  Actual Average Record
Temperature  
Mean Temperature 80 °F -  
Max Temperature 91 °F 79 °F 96 °F (2003)
Min Temperature 70 °F 60 °F 53 °F (2005)
Cooling Degree Days 15    
Growing Degree Days 30 (Base 50)    
Moisture  
Dew Point 61 °F    
Average Humidity 56    
Maximum Humidity 81    
Minimum Humidity 27    
Precipitation  
Precipitation 0.00 in - - ()
Sea Level Pressure  
Sea Level Pressure 29.85 in    
Wind  
Wind Speed 5 mph (NW)    
Max Wind Speed 12 mph    
Max Gust Speed -    
Visibility 10 miles    
Events      
Averages and records for this station are not official NWS values.
T = Trace of Precipitation, MM = Missing Value Source: NWS Daily Summary

Daily Weather History Graph

Daily Weather History Graph

Search for Another Location

Airport:

Trip Planner

Search our weather history database for the weather conditions in past years. The results will help you decide how hot, cold, wet, or windy it might be!

Date:

Astronomy

Sep. 05, 2013 Rise Set
Actual Time 6:25 AM PDT 7:07 PM PDT
Civil Twilight 6:00 AM PDT 7:32 PM PDT
Nautical Twilight 5:31 AM PDT 8:02 PM PDT
Astronomical Twilight 5:01 AM PDT 8:32 PM PDT
Moon 6:38 AM PDT (9/5) 7:07 PM PDT (9/5)
Length of Visible Light 13h 31m
Length of Day
12h 41m
New Moon, 0% of the Moon is Illuminated
Sep 5
New Moon
Sep 12
First Quarter
Sep 19
Full
Sep 26
Last Quarter
Oct 4
New

Hourly Weather History & Observations

Time (PDT) Temp. Heat Index Dew Point Humidity Pressure Visibility Wind Dir Wind Speed Gust Speed Precip Events Conditions
12:55 AM 73.0 °F - 64.0 °F 73% 29.85 in 10.0 mi NNW 4.6 mph - N/A   Scattered Clouds
1:55 AM 72.0 °F - 64.0 °F 76% 29.84 in 10.0 mi North 4.6 mph - N/A   Partly Cloudy
2:55 AM 70.0 °F - 63.0 °F 78% 29.83 in 10.0 mi NW 3.5 mph - N/A   Partly Cloudy
3:55 AM 71.1 °F - 64.9 °F 81% 29.83 in 10.0 mi NW 3.5 mph - N/A   Partly Cloudy
4:55 AM 71.1 °F - 64.9 °F 81% 29.83 in 10.0 mi NNW 3.5 mph - N/A   Scattered Clouds
5:55 AM 70.0 °F - 64.0 °F 81% 29.84 in 10.0 mi Calm Calm - N/A   Scattered Clouds
6:55 AM 71.1 °F - 64.9 °F 81% 29.85 in 10.0 mi NW 4.6 mph - N/A   Partly Cloudy
7:55 AM 73.9 °F - 63.0 °F 68% 29.87 in 10.0 mi NNW 8.1 mph - N/A   Partly Cloudy
8:55 AM 78.1 °F - 63.0 °F 60% 29.87 in 10.0 mi Calm Calm - N/A   Partly Cloudy
9:55 AM 84.9 °F 85.0 °F 61.0 °F 44% 29.87 in 10.0 mi WNW 3.5 mph - N/A   Partly Cloudy
10:55 AM 88.0 °F 87.9 °F 61.0 °F 40% 29.87 in 10.0 mi NW 8.1 mph - N/A   Partly Cloudy
11:55 AM 87.1 °F 86.7 °F 60.1 °F 40% 29.86 in 10.0 mi WNW 10.4 mph - N/A   Partly Cloudy
12:55 PM 87.1 °F 85.9 °F 57.0 °F 36% 29.86 in 10.0 mi WNW 11.5 mph - N/A   Partly Cloudy
1:55 PM 89.1 °F 87.1 °F 55.0 °F 31% 29.84 in 10.0 mi NW 11.5 mph - N/A   Scattered Clouds
2:55 PM 90.0 °F 87.9 °F 55.0 °F 30% 29.83 in 10.0 mi NNW 9.2 mph - N/A   Scattered Clouds
3:55 PM 90.0 °F - 52.0 °F 27% 29.82 in 10.0 mi WNW 9.2 mph - N/A   Scattered Clouds
4:55 PM 88.0 °F 86.7 °F 57.0 °F 35% 29.82 in 10.0 mi NW 10.4 mph - N/A   Scattered Clouds
5:55 PM 84.9 °F 84.2 °F 57.9 °F 40% 29.82 in 10.0 mi NW 8.1 mph - N/A   Scattered Clouds
6:55 PM 84.0 °F 83.3 °F 57.0 °F 40% 29.83 in 10.0 mi Calm Calm - N/A   Scattered Clouds
7:55 PM 82.0 °F 82.4 °F 60.1 °F 47% 29.83 in 10.0 mi NW 8.1 mph - N/A   Partly Cloudy
8:55 PM 80.1 °F 80.7 °F 59.0 °F 48% 29.85 in 10.0 mi NNW 6.9 mph - N/A   Partly Cloudy
9:55 PM 75.0 °F - 60.1 °F 60% 29.86 in 10.0 mi NNW 6.9 mph - N/A   Partly Cloudy
10:55 PM 73.0 °F - 64.9 °F 76% 29.86 in 10.0 mi North 4.6 mph - N/A   Partly Cloudy
11:55 PM 72.0 °F - 64.9 °F 78% 29.85 in 10.0 mi Calm Calm - N/A   Partly Cloudy